This demonstration page uses our WeatherBlox Daily Observations layout. Learn more.

Left ArrowRight Arrow

Hourly Observations for November 30, 2016

Temp ( °F °C ) Dew Point ( °F °C ) Humidity (%) Winds ( mph kmh ) Pressure ( in mb ) Visibility ( mi km ) Precip ( " mm )
12:15 am 00:15 Cloudy with Fog 55 13 55 13 100 100 N N/A 29.91 1013 0 0 N/A
12:35 am 00:35 Cloudy with Fog 54 12 54 12 100 100 N N/A 29.91 1013 0 0 N/A
12:55 am 00:55 Cloudy with Fog 54 12 54 12 100 100 N N/A 29.91 1013 0 0 N/A
1:15 am 01:15 Cloudy with Fog 54 12 54 12 100 100 N N/A 29.91 1013 0 0 N/A
1:35 am 01:35 Cloudy with Fog 54 12 54 12 100 100 N 5 7 29.91 1013 0 0 N/A
1:55 am 01:55 Cloudy with Fog 54 12 54 12 100 100 N N/A 29.91 1013 0 0 N/A
2:15 am 02:15 Cloudy with Fog 54 12 54 12 100 100 NNW 3 6 29.94 1014 0 0 N/A
2:35 am 02:35 Cloudy with Fog 54 12 54 12 100 100 N 3 6 29.91 1013 0 0 N/A
2:55 am 02:55 Cloudy with Fog 54 12 54 12 100 100 NNE 3 6 29.91 1013 0 0 N/A
3:15 am 03:15 Cloudy with Fog 54 12 54 12 100 100 NE 5 7 29.91 1013 1 1 N/A
3:35 am 03:35 Cloudy with Fog 54 12 54 12 100 100 NE 6 9 29.91 1013 1 1 N/A
3:55 am 03:55 Cloudy with Mist and Fog 54 12 54 12 100 100 NNE 3 6 29.88 1012 1 2 N/A
4:15 am 04:15 Cloudy with Mist and Fog 54 12 54 12 100 100 N N/A 29.91 1013 1 1 N/A
4:35 am 04:35 Cloudy with Fog 54 12 54 12 100 100 N N/A 29.88 1012 1 1 N/A
4:55 am 04:55 Cloudy with Fog 54 12 54 12 100 100 N N/A 29.88 1012 0 0 N/A
5:15 am 05:15 Cloudy with Fog 54 12 54 12 100 100 W 8 13 29.91 1013 0 0 N/A
5:35 am 05:35 Cloudy with Fog 54 12 54 12 100 100 WSW 3 6 29.91 1013 1 1 N/A
5:55 am 05:55 Cloudy with Rain 54 12 54 12 100 100 SSW 5 7 29.94 1014 1 1 N/A
6:15 am 06:15 Cloudy with Light Rain 54 12 54 12 100 100 N N/A 29.91 1013 1 1 0.01 0.25
6:35 am 06:35 Cloudy with Rain 54 12 54 12 100 100 N 5 7 29.85 1011 1 2 0.02 0.51
6:55 am 06:55 Cloudy with Mist and Fog 54 12 54 12 100 100 N N/A 29.88 1012 1 2 0.02 0.51
7:15 am 07:15 Cloudy with Rain 54 12 54 12 100 100 E 7 11 29.85 1011 1 1 N/A
7:35 am 07:35 Cloudy with Light Rain 54 12 54 12 100 100 N N/A 29.85 1011 0 0 0.01 0.25
7:55 am 07:55 Cloudy with Rain 54 12 54 12 100 100 N 5 7 29.83 1010 0 0 0.01 0.25
8:15 am 08:15 Cloudy with Heavy Rain 54 12 54 12 100 100 N 7 11 29.85 1011 1 1 0.09 2.29
8:35 am 08:35 Cloudy with Heavy Rain 54 12 54 12 100 100 N 5 7 29.85 1011 3 4 0.15 3.81
8:55 am 08:55 Cloudy with Rain 54 12 54 12 100 100 NE 5 7 29.83 1010 3 4 0.24 6.10
9:15 am 09:15 Cloudy with Rain 54 12 54 12 100 100 NE 3 6 29.83 1010 4 6 0.04 1.02
9:35 am 09:35 Cloudy with Rain 54 12 54 12 100 100 WNW 9 15 29.83 1010 5 8 0.08 2.03
9:55 am 09:55 Cloudy with Light Rain 54 12 54 12 100 100 N N/A 29.80 1009 7 11 0.12 3.05
10:15 am 10:15 Cloudy with Rain 55 13 55 13 100 100 N N/A 29.80 1009 7 11 N/A
10:35 am 10:35 Cloudy with Light Rain 55 13 55 13 100 100 N N/A 29.80 1009 7 11 0.01 0.25
10:55 am 10:55 Cloudy with Light Rain 55 13 55 13 100 100 SSW 6 9 29.80 1009 3 5 0.03 0.76
11:15 am 11:15 Cloudy with Light Rain 55 13 55 13 100 100 NNW 5 7 29.77 1008 4 6 N/A
11:35 am 11:35 Cloudy with Mist and Fog 55 13 55 13 100 100 NNW 5 7 29.77 1008 5 8 N/A
11:55 am 11:55 Cloudy with Mist and Fog 55 13 55 13 100 100 N N/A 29.77 1008 4 6 N/A
12:15 pm 12:15 Cloudy with Mist and Fog 57 14 57 14 100 100 WNW 3 6 29.77 1008 4 6 0.01 0.25
12:35 pm 12:35 Cloudy with Light Rain 57 14 57 14 100 100 N N/A 29.74 1007 3 4 0.02 0.51
12:55 pm 12:55 Cloudy with Mist and Fog 57 14 57 14 100 100 N N/A 29.74 1007 2 3 0.02 0.51
1:15 pm 13:15 Cloudy with Mist and Fog 59 15 59 15 100 100 N N/A 29.74 1007 3 4 N/A
1:35 pm 13:35 Cloudy with Mist and Fog 59 15 59 15 100 100 N N/A 29.74 1007 5 8 N/A
1:55 pm 13:55 Cloudy with Mist and Fog 59 15 59 15 100 100 N N/A 29.74 1007 4 6 N/A
2:15 pm 14:15 Cloudy with Mist and Fog 59 15 59 15 100 100 NNW 7 11 29.74 1007 4 6 N/A
2:35 pm 14:35 Cloudy 59 15 59 15 100 100 N N/A 29.74 1007 10 16 N/A
2:55 pm 14:55 Cloudy 59 15 59 15 100 100 SSE 5 7 29.74 1007 10 16 N/A
3:15 pm 15:15 Partly Cloudy 59 15 59 15 100 100 SSE 7 11 29.71 1006 10 16 N/A
3:35 pm 15:35 Mostly Cloudy 59 15 59 15 100 100 S 7 11 29.71 1006 7 11 N/A
3:55 pm 15:55 Cloudy 59 15 59 15 100 100 SW 3 6 29.71 1006 7 11 N/A
4:15 pm 16:15 Cloudy with Heavy Rain 59 15 59 15 100 100 NW 6 9 29.71 1006 5 8 0.02 0.51
4:35 pm 16:35 Cloudy with Heavy Rain 59 15 59 15 100 100 N 6 9 29.71 1006 3 5 0.14 3.56
4:55 pm 16:55 Cloudy with Light Rain 61 16 61 16 100 100 E 6 9 29.68 1005 10 16 0.17 4.32
5:15 pm 17:15 Cloudy with Heavy Rain 59 15 59 15 100 100 WNW 8 13 29.71 1006 3 4 0.11 2.79
5:35 pm 17:35 Cloudy with Rain 59 15 59 15 100 100 WNW 12 19 29.74 1007 7 11 0.22 5.59
5:55 pm 17:55 Cloudy with Light Rain 59 15 59 15 100 100 ENE 5 7 29.68 1005 7 11 0.31 7.87
6:15 pm 18:15 Cloudy with Rain 59 15 59 15 100 100 SE 7 11 29.68 1005 7 11 0.04 1.02
6:35 pm 18:35 Cloudy with Rain 59 15 59 15 100 100 N N/A 29.68 1005 5 8 0.11 2.79
7:15 pm 19:15 Cloudy 57 14 57 14 100 100 NE 5 7 29.65 1004 10 16 N/A
7:35 pm 19:35 Cloudy with Light Rain 57 14 57 14 100 100 N N/A 29.65 1004 7 11 0.02 0.51
7:55 pm 19:55 Cloudy with Rain 57 14 57 14 100 100 N 8 13 29.65 1004 7 11 0.05 1.27
8:15 pm 20:15 Cloudy with Heavy Rain 57 14 57 14 100 100 N N/A 29.65 1004 2 2 0.28 7.11
8:35 pm 20:35 Cloudy with Heavy Rain 57 14 57 14 100 100 N N/A 29.65 1004 3 4 0.49 12.45
8:55 pm 20:55 Cloudy with Light Rain 57 14 57 14 100 100 E 6 9 29.59 1002 3 5 0.50 12.70
9:15 pm 21:15 Cloudy with Rain 57 14 57 14 100 100 ESE 5 7 29.62 1003 4 6 0.01 0.25
9:35 pm 21:35 Cloudy with Light Rain 57 14 57 14 100 100 E 6 9 29.56 1001 2 2 0.03 0.76
9:55 pm 21:55 Cloudy 57 14 57 14 100 100 SSE 5 7 29.56 1001 7 11 0.03 0.76
10:15 pm 22:15 Cloudy with Mist and Fog 57 14 57 14 100 100 W 5 7 29.56 1001 4 6 N/A
10:35 pm 22:35 Cloudy with Mist and Fog 57 14 57 14 100 100 WSW 5 7 29.59 1002 5 8 N/A
10:55 pm 22:55 Cloudy with Mist and Fog 57 14 57 14 100 100 SSW 7 11 29.56 1001 5 8 N/A
11:15 pm 23:15 Cloudy with Mist and Fog 57 14 57 14 100 100 S 7 11 29.56 1001 5 8 N/A
11:35 pm 23:35 Cloudy with Mist and Fog 57 14 57 14 100 100 S 7 11 29.56 1001 5 8 N/A
11:55 pm 23:55 Cloudy 57 14 57 14 100 100 WSW 6 9 29.56 1001 10 16 N/A

Powered by AerisWeather